• în Republica Moldova
  • Lista ţărilor
  • Pe 7 zile
  • Temperatura apei
  • Hartă satelitară
  • Meteo pe hartă
  • Widget-uri
  • user-avatar
    Intrare

    Meteo pe oră la Djelfa

    Astăzi, 27 Februarie, Luni

    Timp Temperatura Precipitaţii Vânt Presiune Umiditate
    00:00 +5°C° 0 mm 0 m/s 664 mmHg 61%
    01:00 +6°C° 0 mm 1 m/s 664 mmHg 62%
    02:00 +6°C° 0 mm 1 m/s 664 mmHg 62%
    03:00 +6°C° 0 mm 1 m/s 664 mmHg 63%
    04:00 +6°C° 0 mm 1 m/s 664 mmHg 65%
    05:00 +5°C° 0 mm 1 m/s 664 mmHg 67%
    06:00 +4°C° 0 mm 2 m/s 664 mmHg 71%
    07:00 +6°C° 0 mm 2 m/s 664 mmHg 65%
    08:00 +8°C° 0 mm 2 m/s 665 mmHg 59%
    09:00 +9°C° 0 mm 3 m/s 665 mmHg 54%
    10:00 +11°C° 0 mm 3 m/s 665 mmHg 47%
    11:00 +13°C° 0 mm 3 m/s 666 mmHg 40%
    12:00 +14°C° 0 mm 3 m/s 666 mmHg 34%
    13:00 +16°C° 0 mm 3 m/s 665 mmHg 31%
    14:00 +16°C° 0 mm 3 m/s 665 mmHg 29%
    15:00 +17°C° 0 mm 3 m/s 665 mmHg 27%
    16:00 +16°C° 0 mm 2 m/s 664 mmHg 31%
    17:00 +15°C° 0 mm 2 m/s 664 mmHg 35%
    18:00 +13°C° 0 mm 1 m/s 663 mmHg 39%
    19:00 +13°C° 0 mm 1 m/s 664 mmHg 42%
    20:00 +12°C° 0 mm 1 m/s 664 mmHg 44%
    21:00 +11°C° 0 mm 1 m/s 664 mmHg 47%
    22:00 +10°C° 0 mm 1 m/s 664 mmHg 50%
    23:00 +10°C° 0 mm 1 m/s 663 mmHg 53%

    Mâine, 28 Februarie, Marţi

    Timp Temperatura Precipitaţii Vânt Presiune Umiditate
    00:00 +9°C° 0 mm 1 m/s 663 mmHg 55%
    01:00 +9°C° 0 mm 1 m/s 663 mmHg 57%
    02:00 +8°C° 0 mm 1 m/s 663 mmHg 59%
    03:00 +8°C° 0 mm 1 m/s 662 mmHg 61%
    04:00 +8°C° 0 mm 1 m/s 662 mmHg 63%
    05:00 +7°C° 0 mm 1 m/s 662 mmHg 66%
    06:00 +7°C° 0 mm 1 m/s 662 mmHg 68%
    07:00 +9°C° 0 mm 1 m/s 663 mmHg 61%
    08:00 +10°C° 0 mm 2 m/s 664 mmHg 53%
    09:00 +13°C° 0 mm 2 m/s 665 mmHg 46%
    10:00 +14°C° 0 mm 2 m/s 665 mmHg 41%
    11:00 +14°C° 0 mm 3 m/s 665 mmHg 37%
    12:00 +17°C° 0 mm 3 m/s 665 mmHg 33%
    13:00 +17°C° 0 mm 3 m/s 665 mmHg 30%
    14:00 +18°C° 0 mm 4 m/s 664 mmHg 28%
    15:00 +19°C° 0 mm 4 m/s 664 mmHg 25%
    16:00 +17°C° 0 mm 4 m/s 664 mmHg 29%
    17:00 +16°C° 0 mm 3 m/s 664 mmHg 32%
    18:00 +14°C° 0 mm 3 m/s 663 mmHg 36%
    19:00 +13°C° 0 mm 3 m/s 664 mmHg 44%
    20:00 +11°C° 0 mm 3 m/s 664 mmHg 51%
    21:00 +10°C° 0 mm 3 m/s 664 mmHg 58%
    22:00 +10°C° 0 mm 3 m/s 664 mmHg 61%
    23:00 +9°C° 0 mm 3 m/s 664 mmHg 64%

    Poimâine, 1 Martie, Miercuri

    Timp Temperatura Precipitaţii Vânt Presiune Umiditate
    00:00 +8°C° 0 mm 3 m/s 664 mmHg 67%
    01:00 +6°C° 0 mm 4 m/s 664 mmHg 64%
    02:00 +6°C° 0 mm 4 m/s 664 mmHg 62%
    03:00 +5°C° 0 mm 4 m/s 664 mmHg 59%
    04:00 +5°C° 0 mm 4 m/s 664 mmHg 61%
    05:00 +4°C° 0 mm 4 m/s 664 mmHg 63%
    06:00 +4°C° 0 mm 3 m/s 664 mmHg 64%
    07:00 +5°C° 0 mm 3 m/s 665 mmHg 59%
    08:00 +8°C° 0 mm 3 m/s 665 mmHg 53%
    09:00 +9°C° 0 mm 3 m/s 666 mmHg 47%
    10:00 +11°C° 0 mm 3 m/s 666 mmHg 42%
    11:00 +12°C° 0 mm 3 m/s 666 mmHg 37%
    12:00 +14°C° 0 mm 3 m/s 666 mmHg 32%
    13:00 +15°C° 0 mm 2 m/s 666 mmHg 31%
    14:00 +16°C° 0 mm 2 m/s 666 mmHg 29%
    15:00 +17°C° 0 mm 2 m/s 666 mmHg 28%
    16:00 +16°C° 0 mm 1 m/s 666 mmHg 31%
    17:00 +14°C° 0 mm 1 m/s 666 mmHg 35%
    18:00 +13°C° 0 mm 1 m/s 665 mmHg 38%
    19:00 +13°C° 0 mm 1 m/s 666 mmHg 40%
    20:00 +12°C° 0 mm 1 m/s 666 mmHg 42%
    21:00 +11°C° 0 mm 1 m/s 666 mmHg 44%
    22:00 +11°C° 0 mm 1 m/s 666 mmHg 44%
    23:00 +11°C° 0 mm 1 m/s 666 mmHg 43%

    2 Martie, Joi

    Timp Temperatura Precipitaţii Vânt Presiune Umiditate
    00:00 +9°C° 0 mm 2 m/s 666 mmHg 43%
    01:00 +9°C° 0 mm 2 m/s 666 mmHg 42%
    02:00 +8°C° 0 mm 2 m/s 665 mmHg 41%
    03:00 +8°C° 0 mm 2 m/s 665 mmHg 40%
    04:00 +8°C° 0 mm 2 m/s 665 mmHg 40%
    05:00 +7°C° 0 mm 2 m/s 665 mmHg 40%
    06:00 +7°C° 0 mm 2 m/s 665 mmHg 40%
    07:00 +9°C° 0 mm 2 m/s 666 mmHg 37%
    08:00 +12°C° 0 mm 2 m/s 666 mmHg 33%
    09:00 +13°C° 0 mm 3 m/s 667 mmHg 30%
    10:00 +16°C° 0 mm 3 m/s 667 mmHg 28%
    11:00 +17°C° 0 mm 4 m/s 667 mmHg 27%
    12:00 +19°C° 0 mm 5 m/s 667 mmHg 26%
    13:00 +19°C° 0 mm 5 m/s 667 mmHg 25%
    14:00 +20°C° 0 mm 5 m/s 666 mmHg 24%
    15:00 +20°C° 0 mm 5 m/s 666 mmHg 23%
    16:00 +19°C° 0 mm 5 m/s 665 mmHg 25%
    17:00 +17°C° 0 mm 5 m/s 665 mmHg 27%
    18:00 +17°C° 0 mm 4 m/s 665 mmHg 29%
    19:00 +15°C° 0 mm 4 m/s 665 mmHg 31%
    20:00 +14°C° 0 mm 4 m/s 665 mmHg 32%
    21:00 +14°C° 0 mm 4 m/s 665 mmHg 34%
    22:00 +13°C° 0 mm 4 m/s 665 mmHg 35%
    23:00 +12°C° 0 mm 4 m/s 664 mmHg 36%

    3 Martie, Vineri

    Timp Temperatura Precipitaţii Vânt Presiune Umiditate
    00:00 +12°C° 0 mm 4 m/s 664 mmHg 38%
    01:00 +11°C° 0 mm 3 m/s 664 mmHg 39%
    02:00 +10°C° 0 mm 3 m/s 663 mmHg 41%
    03:00 +10°C° 0 mm 3 m/s 663 mmHg 42%
    04:00 +9°C° 0 mm 3 m/s 663 mmHg 44%
    05:00 +9°C° 0 mm 3 m/s 663 mmHg 45%
    06:00 +9°C° 0 mm 2 m/s 662 mmHg 47%
    07:00 +10°C° 0 mm 3 m/s 663 mmHg 42%
    08:00 +12°C° 0 mm 3 m/s 664 mmHg 37%
    09:00 +14°C° 0 mm 3 m/s 664 mmHg 32%
    10:00 +17°C° 0 mm 3 m/s 664 mmHg 29%
    11:00 +18°C° 0 mm 3 m/s 664 mmHg 26%
    12:00 +20°C° 0 mm 3 m/s 664 mmHg 23%
    13:00 +20°C° 0 mm 4 m/s 664 mmHg 21%
    14:00 +21°C° 0 mm 4 m/s 664 mmHg 20%
    15:00 +21°C° 0 mm 5 m/s 663 mmHg 19%
    16:00 +20°C° 0 mm 4 m/s 663 mmHg 22%
    17:00 +19°C° 0 mm 4 m/s 663 mmHg 25%
    18:00 +17°C° 0 mm 3 m/s 662 mmHg 27%
    19:00 +16°C° 0 mm 3 m/s 662 mmHg 33%
    20:00 +15°C° 0 mm 2 m/s 663 mmHg 38%
    21:00 +14°C° 0 mm 2 m/s 663 mmHg 43%
    22:00 +13°C° 0 mm 2 m/s 662 mmHg 46%
    23:00 +12°C° 0 mm 1 m/s 662 mmHg 48%

    4 Martie, Sâmbătă

    Timp Temperatura Precipitaţii Vânt Presiune Umiditate
    00:00 +12°C° 0 mm 1 m/s 661 mmHg 51%
    01:00 +11°C° 0 mm 1 m/s 661 mmHg 51%
    02:00 +11°C° 0 mm 1 m/s 661 mmHg 50%
    03:00 +11°C° 0 mm 1 m/s 660 mmHg 50%
    04:00 +11°C° 0 mm 1 m/s 660 mmHg 47%
    05:00 +10°C° 0 mm 2 m/s 660 mmHg 45%
    06:00 +10°C° 0 mm 2 m/s 660 mmHg 43%
    07:00 +12°C° 0 mm 4 m/s 661 mmHg 37%
    08:00 +14°C° 0 mm 5 m/s 661 mmHg 32%
    09:00 +16°C° 0 mm 6 m/s 662 mmHg 26%
    10:00 +17°C° 0 mm 8 m/s 661 mmHg 27%
    11:00 +17°C° 0 mm 9 m/s 661 mmHg 27%
    12:00 +18°C° 0 mm 11 m/s 661 mmHg 28%
    13:00 +19°C° 0 mm 11 m/s 660 mmHg 25%
    14:00 +19°C° 0 mm 11 m/s 660 mmHg 22%
    15:00 +21°C° 0 mm 12 m/s 659 mmHg 19%
    16:00 +17°C° 0,2 mm 11 m/s 659 mmHg 33%
    17:00 +13°C° 0,2 mm 11 m/s 659 mmHg 47%
    18:00 +9°C° 0,2 mm 10 m/s 659 mmHg 61%
    19:00 +8°C° 0,7 mm 10 m/s 659 mmHg 63%
    20:00 +6°C° 0,7 mm 10 m/s 660 mmHg 65%
    21:00 +3°C° 0,7 mm 10 m/s 660 mmHg 67%
    22:00 +2°C° 0,4 mm 10 m/s 660 mmHg 67%
    23:00 +2°C° 0,4 mm 10 m/s 661 mmHg 68%
    Arată mai mult